Home   Weather   Metairie   Past weeks

Flag for USA Past Weather in Metairie, Louisiana, USA — Yesterday and Last 2 Weeks

Now
57 °F

Mostly cloudy.


Feels Like: 55 °F
Forecast: 58 / 67 °F
Wind: 9 mph from East

Location: New Orleans International Airport

Current Time: Dec 3, 2016 at 3:52:14 am

Latest Report: Dec 3, 2016 at 1:53 am


Visibility: 10 mi

Pressure: 30.16 "Hg

Humidity: 78%

Dew Point: 50 °F

Location of MetairieLocation

Past Weather in Metairie — Graph

°F

Metairie Temperature Yesterday

Maximum temperature yesterday: 64 °F (at 11:53 am)
Minimum temperature yesterday: 51 °F (at 12:53 am)
Average temperature yesterday: 60 °F

High & Low Weather Summary for the Past Weeks

 TemperatureHumidityPressure
High82 °F (Nov 29, 11:53 am)100% (Nov 18, 4:53 am)30.43 "Hg (Nov 18, 4:53 am)
Low38 °F (Nov 21, 5:53 am)29% (Nov 20, 1:53 pm)29.65 "Hg (Nov 28, 5:53 pm)
Average62 °F73%30.13 "Hg
* Reported Nov 18 1:53 am — Dec 3 1:53 am, Metairie, Weather by CustomWeather, © 2016

Note: Actual official high and low records may vary slightly from our data, if they occured in-between our weather recording intervals... More about our weather records

Advertising

Metairie Weather History for the Previous 24 Hours

Scroll right to see more
 ConditionsComfort  
Time TempWeatherWind HumidityBarometerVisibility
1:53 am
Sat, Dec 3
57 °FMostly cloudy.9 mph78%30.16 "Hg10 mi
12:53 am56 °FLight rain. Mostly cloudy.7 mph81%30.16 "Hg8 mi
11:53 pm
Fri, Dec 2
58 °FLight rain. Overcast.6 mph65%30.19 "Hg7 mi
10:53 pm60 °FLight rain. Overcast.13 mph56%30.19 "Hg10 mi
9:53 pm61 °FLight rain. Mostly cloudy.12 mph60%30.19 "Hg10 mi
8:53 pm62 °FLight rain. Mostly cloudy.9 mph60%30.20 "Hg10 mi
7:53 pm62 °FMostly cloudy.10 mph54%30.20 "Hg10 mi
6:53 pm61 °FLight rain. Mostly cloudy.9 mph52%30.19 "Hg10 mi
5:53 pm61 °FOvercast.12 mph50%30.19 "Hg10 mi
4:53 pm61 °FMostly cloudy.13 mph56%30.19 "Hg10 mi
3:53 pm62 °FMostly cloudy.14 mph54%30.18 "Hg10 mi
2:53 pm63 °FMore clouds than sun.14 mph50%30.19 "Hg10 mi
1:53 pm64 °FPartly sunny.15 mph45%30.16 "Hg10 mi
12:53 pm64 °FPartly sunny.13 mph54%30.18 "Hg10 mi
11:53 am64 °FBroken clouds.20 mph52%30.20 "Hg10 mi
10:53 am63 °FMostly cloudy.14 mph50%30.23 "Hg10 mi
9:53 am62 °FPartly sunny.16 mph46%30.23 "Hg10 mi
8:53 am60 °FPartly sunny.9 mph53%30.23 "Hg10 mi
7:53 am58 °FPartly sunny.15 mph54%30.21 "Hg10 mi
6:53 am57 °FPartly sunny.12 mph49%30.19 "Hg10 mi
5:53 am57 °FPassing clouds.9 mph53%30.17 "Hg10 mi
4:53 am56 °FPassing clouds.6 mph55%30.16 "Hg10 mi
3:53 am57 °FPassing clouds.7 mph58%30.16 "Hg10 mi
Weather by CustomWeather, © 2016

See weather overviewHow to use our weather pages